Voltar ao catálogo

STARLINK-3708

AtivoComunicaçõesVLEO
NORAD 52111·PAYLOAD·🇺🇸 United States

Lançado Mar 19, 2022 de Cape Canaveral Space Force Station

Loading…

Próximas Passagens (próximas 24 horas)

TLE

AtualizadoSource: CelesTrak SupGP

Época: Sep 14, 2026, 14:29 UTC

1 52111C 22029Z   26257.60395833  .00040175  00000+0  11873-2 0  2579
2 52111  53.1578 296.9403 0001282  76.7088  37.4246 15.34362387    12

Acompanhe STARLINK-3708 em tempo real com AllMySat

Download on the App Store